Time,TemperatureF,DewpointF,PressureIn,WindDirection,WindDirectionDegrees,WindSpeedMPH,WindSpeedGustMPH,Humidity,HourlyPrecipIn,Conditions,Clouds,dailyrainin,SoftwareType,DateUTC
2013-01-13 00:01:00,48.0,26.6,30.12,SE,135,0.0,0.0,43,0.00,,---,0.00,VWS V14.00,2013-01-13 05:01:00,
2013-01-13 00:02:00,48.0,26.6,30.12,SE,135,1.6,1.6,43,0.00,,---,0.00,VWS V14.00,2013-01-13 05:02:00,
2013-01-13 00:03:00,48.0,26.6,30.12,SE,135,0.0,2.0,43,0.00,,---,0.00,VWS V14.00,2013-01-13 05:03:00,
2013-01-13 07:08:00,45.5,28.0,30.09,SSW,202,2.9,3.6,50,0.00,,---,0.00,VWS V14.00,2013-01-13 12:08:00,
2013-01-13 07:09:00,45.5,28.0,30.09,SSW,202,4.3,4.3,50,0.00,,---,0.00,VWS V14.00,2013-01-13 12:09:00,
2013-01-13 07:10:00,45.5,28.4,30.09,South,180,3.1,4.3,51,0.00,,---,0.00,VWS V14.00,2013-01-13 12:10:00,
2013-01-13 07:12:00,45.5,28.4,30.09,SSW,202,2.5,4.3,51,0.00,,---,0.00,VWS V14.00,2013-01-13 12:12:00,
2013-01-13 07:14:00,45.3,27.8,30.09,SSW,202,2.5,3.4,50,0.00,,---,0.00,VWS V14.00,2013-01-13 12:14:00,
2013-01-13 07:17:00,45.5,28.0,30.09,SSE,158,3.6,4.9,50,0.00,,---,0.00,VWS V14.00,2013-01-13 12:17:00,
2013-01-13 07:19:00,45.5,28.4,30.09,SSE,158,2.0,2.0,51,0.00,,---,0.00,VWS V14.00,2013-01-13 12:19:00,
2013-01-13 07:21:00,45.7,29.1,30.09,SSE,158,2.0,2.0,52,0.00,,---,0.00,VWS V14.00,2013-01-13 12:21:00,
2013-01-13 07:24:00,45.7,29.1,30.09,SSE,158,1.6,2.9,52,0.00,,---,0.00,VWS V14.00,2013-01-13 12:24:00,
2013-01-13 07:25:00,45.7,29.1,30.09,SSE,158,0.0,2.7,52,0.00,,---,0.00,VWS V14.00,2013-01-13 12:25:00,
2013-01-13 07:28:00,45.7,29.5,30.09,SSE,158,4.0,4.0,53,0.00,,---,0.00,VWS V14.00,2013-01-13 12:28:00,
2013-01-13 07:29:00,45.7,29.5,30.09,SSE,158,3.8,4.3,53,0.00,,---,0.00,VWS V14.00,2013-01-13 12:29:00,
2013-01-13 07:31:00,45.7,29.5,30.09,South,180,5.8,5.8,53,0.00,,---,0.00,VWS V14.00,2013-01-13 12:31:00,
2013-01-13 07:32:00,45.7,29.5,30.09,South,180,4.9,5.8,53,0.00,,---,0.00,VWS V14.00,2013-01-13 12:32:00,
2013-01-13 07:36:00,45.7,29.5,30.12,SSE,158,6.3,7.2,53,0.00,,---,0.00,VWS V14.00,2013-01-13 12:36:00,
2013-01-13 07:39:00,45.5,29.4,30.12,South,180,2.9,4.7,53,0.00,,---,0.00,VWS V14.00,2013-01-13 12:39:00,
2013-01-13 07:42:00,45.5,29.4,30.12,South,180,1.3,2.2,53,0.00,,---,0.00,VWS V14.00,2013-01-13 12:42:00,
2013-01-13 07:45:00,45.7,30.0,30.12,SSE,158,2.9,4.9,54,0.00,,---,0.00,VWS V14.00,2013-01-13 12:45:00,
2013-01-13 07:47:00,45.5,29.4,30.12,SSE,158,2.7,4.7,53,0.00,,---,0.00,VWS V14.00,2013-01-13 12:47:00,
2013-01-13 07:50:00,45.5,29.4,30.12,South,180,5.8,5.8,53,0.00,,---,0.00,VWS V14.00,2013-01-13 12:50:00,
2013-01-13 07:51:00,45.5,29.4,30.12,South,180,5.8,5.8,53,0.00,,---,0.00,VWS V14.00,2013-01-13 12:51:00,
2013-01-13 07:52:00,45.5,29.4,30.12,SE,135,3.4,5.8,53,0.00,,---,0.00,VWS V14.00,2013-01-13 12:52:00,
2013-01-13 07:54:00,45.5,29.4,30.12,SSE,158,5.6,6.3,53,0.00,,---,0.00,VWS V14.00,2013-01-13 12:54:00,
2013-01-13 07:55:00,45.5,29.4,30.12,SSE,158,3.4,6.3,53,0.00,,---,0.00,VWS V14.00,2013-01-13 12:55:00,
2013-01-13 07:56:00,45.5,29.8,30.12,SSE,158,4.3,5.6,54,0.00,,---,0.00,VWS V14.00,2013-01-13 12:56:00,
2013-01-13 07:57:00,45.5,29.8,30.12,SSE,158,4.3,6.5,54,0.00,,---,0.00,VWS V14.00,2013-01-13 12:57:00,
2013-01-13 08:00:00,45.5,29.8,30.12,SSE,158,4.3,5.6,54,0.00,,---,0.00,VWS V14.00,2013-01-13 13:00:00,
2013-01-13 08:01:00,45.5,29.8,30.12,South,180,5.4,6.3,54,0.00,,---,0.00,VWS V14.00,2013-01-13 13:01:00,
2013-01-13 08:07:00,45.5,30.7,30.12,South,180,2.7,5.8,56,0.00,,---,0.00,VWS V14.00,2013-01-13 13:07:00,
2013-01-13 08:09:00,45.5,31.2,30.12,SSE,158,4.9,4.9,57,0.00,,---,0.00,VWS V14.00,2013-01-13 13:09:00,
2013-01-13 08:10:00,45.7,31.3,30.12,SE,135,4.3,4.9,57,0.00,,---,0.00,VWS V14.00,2013-01-13 13:10:00,
2013-01-13 08:12:00,45.7,31.3,30.12,SSE,158,3.8,3.8,57,0.00,,---,0.00,VWS V14.00,2013-01-13 13:12:00,
2013-01-13 08:16:00,45.9,32.4,30.12,SSW,202,1.6,3.1,59,0.00,,---,0.00,VWS V14.00,2013-01-13 13:16:00,
2013-01-13 08:18:00,45.9,32.8,30.12,South,180,3.1,4.9,60,0.00,,---,0.00,VWS V14.00,2013-01-13 13:18:00,
2013-01-13 08:19:00,45.9,32.8,30.12,SSE,158,3.4,3.4,60,0.00,,---,0.00,VWS V14.00,2013-01-13 13:19:00,
2013-01-13 08:23:00,45.9,33.2,30.15,South,180,3.6,4.3,61,0.00,,---,0.00,VWS V14.00,2013-01-13 13:23:00,
2013-01-13 08:25:00,45.9,33.2,30.15,SSW,202,0.0,5.6,61,0.00,,---,0.00,VWS V14.00,2013-01-13 13:25:00,
2013-01-13 08:29:00,46.0,33.4,30.15,SSW,202,2.5,3.4,61,0.00,,---,0.00,VWS V14.00,2013-01-13 13:29:00,
2013-01-13 08:31:00,46.0,33.4,30.15,SSW,202,2.5,2.5,61,0.00,,---,0.00,VWS V14.00,2013-01-13 13:31:00,
2013-01-13 08:35:00,46.4,34.9,30.15,SSW,202,0.0,2.2,64,0.00,,---,0.00,VWS V14.00,2013-01-13 13:35:00,
2013-01-13 08:37:00,46.4,35.7,30.15,SSW,202,1.6,3.4,66,0.00,,---,0.00,VWS V14.00,2013-01-13 13:37:00,
2013-01-13 08:38:00,46.4,36.0,30.15,SSW,202,2.7,6.5,67,0.00,,---,0.00,VWS V14.00,2013-01-13 13:38:00,
2013-01-13 08:43:00,46.2,34.3,30.15,SSW,202,2.7,2.9,63,0.00,,---,0.00,VWS V14.00,2013-01-13 13:43:00,
2013-01-13 08:44:00,46.4,34.5,30.15,SSW,202,1.6,3.4,63,0.00,,---,0.00,VWS V14.00,2013-01-13 13:44:00,
2013-01-13 08:45:00,46.4,34.5,30.15,SSW,202,2.5,3.4,63,0.00,,---,0.00,VWS V14.00,2013-01-13 13:45:00,
2013-01-13 08:48:00,46.4,34.5,30.15,SSW,202,2.2,3.4,63,0.00,,---,0.00,VWS V14.00,2013-01-13 13:48:00,
2013-01-13 08:51:00,46.4,34.1,30.15,South,180,4.7,5.4,62,0.00,,---,0.00,VWS V14.00,2013-01-13 13:51:00,
2013-01-13 08:52:00,46.4,33.7,30.15,South,180,4.5,4.7,61,0.00,,---,0.00,VWS V14.00,2013-01-13 13:52:00,
2013-01-13 08:54:00,46.4,33.7,30.15,SSW,202,4.0,6.3,61,0.00,,---,0.00,VWS V14.00,2013-01-13 13:54:00,
2013-01-13 08:57:00,46.2,31.8,30.15,SSW,202,2.7,5.6,57,0.00,,---,0.00,VWS V14.00,2013-01-13 13:57:00,
2013-01-13 08:59:00,46.2,31.4,30.15,SSW,202,2.9,4.7,56,0.00,,---,0.00,VWS V14.00,2013-01-13 13:59:00,
2013-01-13 09:00:00,46.4,31.6,30.15,SSW,202,1.6,2.9,56,0.00,,---,0.00,VWS V14.00,2013-01-13 14:00:00,
2013-01-13 09:02:00,46.4,32.4,30.15,SSW,202,1.3,3.4,58,0.00,,---,0.00,VWS V14.00,2013-01-13 14:02:00,
2013-01-13 09:07:00,46.6,33.5,30.15,South,180,5.8,5.8,60,0.00,,---,0.00,VWS V14.00,2013-01-13 14:07:00,
2013-01-13 09:08:00,46.6,33.5,30.15,SSW,202,4.3,5.8,60,0.00,,---,0.00,VWS V14.00,2013-01-13 14:08:00,
2013-01-13 09:13:00,46.8,33.6,30.15,SSW,202,2.9,6.0,60,0.00,,---,0.00,VWS V14.00,2013-01-13 14:13:00,
2013-01-13 09:14:00,46.6,33.0,30.15,South,180,4.9,6.5,59,0.00,,---,0.00,VWS V14.00,2013-01-13 14:14:00,
2013-01-13 09:15:00,46.6,33.0,30.15,SSE,158,4.9,5.4,59,0.00,,---,0.00,VWS V14.00,2013-01-13 14:15:00,
2013-01-13 09:20:00,46.8,32.8,30.15,South,180,4.3,4.3,58,0.00,,---,0.00,VWS V14.00,2013-01-13 14:20:00,
2013-01-13 09:22:00,46.9,33.4,30.15,South,180,3.1,3.1,59,0.00,,---,0.00,VWS V14.00,2013-01-13 14:22:00,
2013-01-13 09:23:00,46.9,33.4,30.15,South,180,0.0,3.1,59,0.00,,---,0.00,VWS V14.00,2013-01-13 14:23:00,
2013-01-13 09:25:00,47.1,34.4,30.15,ESE,112,2.5,2.5,61,0.00,,---,0.00,VWS V14.00,2013-01-13 14:25:00,
2013-01-13 09:27:00,47.3,35.8,30.15,SSE,158,0.9,2.9,64,0.00,,---,0.00,VWS V14.00,2013-01-13 14:27:00,
2013-01-13 09:31:00,47.7,36.9,30.15,SSW,202,3.6,3.6,66,0.00,,---,0.00,VWS V14.00,2013-01-13 14:31:00,
2013-01-13 09:32:00,47.5,37.1,30.15,SSW,202,2.0,3.6,67,0.00,,---,0.00,VWS V14.00,2013-01-13 14:32:00,
2013-01-13 09:33:00,47.3,36.9,30.15,SSW,202,2.7,3.1,67,0.00,,---,0.00,VWS V14.00,2013-01-13 14:33:00,
2013-01-13 09:38:00,47.3,33.3,30.15,SSW,202,0.0,4.0,58,0.00,,---,0.00,VWS V14.00,2013-01-13 14:38:00,
2013-01-13 09:39:00,47.3,32.8,30.15,South,180,2.5,3.1,57,0.00,,---,0.00,VWS V14.00,2013-01-13 14:39:00,
2013-01-13 09:43:00,47.1,30.4,30.15,SSE,158,3.4,6.0,52,0.00,,---,0.00,VWS V14.00,2013-01-13 14:43:00,
2013-01-13 09:45:00,47.1,30.4,30.15,SSW,202,3.6,4.0,52,0.00,,---,0.00,VWS V14.00,2013-01-13 14:45:00,
2013-01-13 09:46:00,47.1,30.4,30.15,SSW,202,4.0,4.0,52,0.00,,---,0.00,VWS V14.00,2013-01-13 14:46:00,
2013-01-13 09:48:00,47.3,30.1,30.15,SSW,202,1.1,6.5,51,0.00,,---,0.00,VWS V14.00,2013-01-13 14:48:00,
2013-01-13 09:51:00,48.0,33.1,30.12,South,180,0.0,3.8,56,0.00,,---,0.00,VWS V14.00,2013-01-13 14:51:00,
2013-01-13 09:53:00,48.6,38.5,30.12,South,180,0.0,0.0,68,0.00,,---,0.00,VWS V14.00,2013-01-13 14:53:00,
2013-01-13 09:54:00,48.4,39.1,30.12,SSW,202,2.9,3.1,70,0.00,,---,0.00,VWS V14.00,2013-01-13 14:54:00,
2013-01-13 09:58:00,48.0,36.0,30.12,South,180,1.6,3.1,63,0.00,,---,0.00,VWS V14.00,2013-01-13 14:58:00,
2013-01-13 09:59:00,48.2,35.8,30.12,South,180,2.5,3.8,62,0.00,,---,0.00,VWS V14.00,2013-01-13 14:59:00,
2013-01-13 10:00:00,48.2,35.8,30.12,SSW,202,5.4,5.4,62,0.00,,---,0.00,VWS V14.00,2013-01-13 15:00:00,
2013-01-13 10:05:00,47.8,32.5,30.12,SE,135,4.9,4.9,55,0.00,,---,0.00,VWS V14.00,2013-01-13 15:05:00,
2013-01-13 10:08:00,47.7,30.0,30.12,South,180,4.3,6.0,50,0.00,,---,0.00,VWS V14.00,2013-01-13 15:08:00,
2013-01-13 10:09:00,47.7,30.0,30.12,South,180,1.1,4.3,50,0.00,,---,0.00,VWS V14.00,2013-01-13 15:09:00,
2013-01-13 10:10:00,48.0,30.3,30.12,SSE,158,3.1,3.1,50,0.00,,---,0.00,VWS V14.00,2013-01-13 15:10:00,
2013-01-13 10:12:00,48.2,30.5,30.12,West,270,2.7,3.4,50,0.00,,---,0.00,VWS V14.00,2013-01-13 15:12:00,
2013-01-13 10:16:00,48.0,31.2,30.12,SSW,202,4.9,7.6,52,0.00,,---,0.00,VWS V14.00,2013-01-13 15:16:00,
2013-01-13 10:18:00,48.2,30.5,30.12,SSE,158,3.6,4.7,50,0.00,,---,0.00,VWS V14.00,2013-01-13 15:18:00,
2013-01-13 10:20:00,48.2,30.9,30.12,SSW,202,5.6,5.6,51,0.00,,---,0.00,VWS V14.00,2013-01-13 15:20:00,
2013-01-13 10:22:00,48.2,30.9,30.15,SSW,202,3.1,4.5,51,0.00,,---,0.00,VWS V14.00,2013-01-13 15:22:00,
2013-01-13 10:25:00,48.4,30.6,30.15,South,180,2.0,3.1,50,0.00,,---,0.00,VWS V14.00,2013-01-13 15:25:00,
2013-01-13 10:27:00,48.6,31.3,30.15,SW,225,0.0,0.0,51,0.00,,---,0.00,VWS V14.00,2013-01-13 15:27:00,
2013-01-13 10:28:00,48.6,31.8,30.15,SSW,202,4.0,4.0,52,0.00,,---,0.00,VWS V14.00,2013-01-13 15:28:00,
2013-01-13 10:29:00,48.6,31.8,30.15,SSW,202,4.0,4.3,52,0.00,,---,0.00,VWS V14.00,2013-01-13 15:29:00,
2013-01-13 10:32:00,48.7,31.4,30.15,South,180,0.0,2.2,51,0.00,,---,0.00,VWS V14.00,2013-01-13 15:32:00,
2013-01-13 10:35:00,48.9,32.6,30.15,WSW,248,1.6,2.5,53,0.00,,---,0.00,VWS V14.00,2013-01-13 15:35:00,
2013-01-13 10:36:00,48.7,32.8,30.15,NW,315,6.3,6.3,54,0.00,,---,0.00,VWS V14.00,2013-01-13 15:36:00,
2013-01-13 10:41:00,48.9,31.1,30.15,West,270,2.5,2.9,50,0.00,,---,0.00,VWS V14.00,2013-01-13 15:41:00,
2013-01-13 10:42:00,48.9,31.1,30.15,ESE,112,0.9,3.6,50,0.00,,---,0.00,VWS V14.00,2013-01-13 15:42:00,
2013-01-13 10:43:00,49.3,32.4,30.15,SSE,158,8.1,8.1,52,0.00,,---,0.00,VWS V14.00,2013-01-13 15:43:00,
2013-01-13 10:45:00,49.1,31.3,30.15,SSW,202,3.8,6.5,50,0.00,,---,0.00,VWS V14.00,2013-01-13 15:45:00,
2013-01-13 10:48:00,48.9,29.6,30.15,SSW,202,2.9,5.8,47,0.00,,---,0.00,VWS V14.00,2013-01-13 15:48:00,
2013-01-13 10:51:00,48.9,28.0,30.15,SSE,158,5.8,5.8,44,0.00,,---,0.00,VWS V14.00,2013-01-13 15:51:00,
2013-01-13 10:53:00,48.7,27.8,30.15,SSW,202,7.8,7.8,44,0.00,,---,0.00,VWS V14.00,2013-01-13 15:53:00,
2013-01-13 10:55:00,48.6,26.5,30.15,SSW,202,2.7,4.0,42,0.00,,---,0.00,VWS V14.00,2013-01-13 15:55:00,
2013-01-13 10:56:00,48.7,26.7,30.15,SSW,202,2.9,3.1,42,0.00,,---,0.00,VWS V14.00,2013-01-13 15:56:00,
2013-01-13 10:58:00,48.7,26.7,30.15,South,180,6.5,6.5,42,0.00,,---,0.00,VWS V14.00,2013-01-13 15:58:00,
2013-01-13 10:59:00,48.2,25.6,30.15,SSW,202,5.6,10.7,41,0.00,,---,0.00,VWS V14.00,2013-01-13 15:59:00,
2013-01-13 11:01:00,48.4,25.8,30.15,South,180,4.0,4.0,41,0.00,,---,0.00,VWS V14.00,2013-01-13 16:01:00,
2013-01-13 11:04:00,48.6,26.0,30.15,SSE,158,5.6,6.0,41,0.00,,---,0.00,VWS V14.00,2013-01-13 16:04:00,
2013-01-13 11:06:00,48.6,26.0,30.15,South,180,6.7,6.7,41,0.00,,---,0.00,VWS V14.00,2013-01-13 16:06:00,
2013-01-13 11:09:00,48.7,26.1,30.15,SSW,202,5.8,5.8,41,0.00,,---,0.00,VWS V14.00,2013-01-13 16:09:00,
2013-01-13 11:10:00,48.6,26.0,30.15,SSW,202,3.8,5.8,41,0.00,,---,0.00,VWS V14.00,2013-01-13 16:10:00,
2013-01-13 11:11:00,48.6,26.0,30.15,SSW,202,2.0,5.6,41,0.00,,---,0.00,VWS V14.00,2013-01-13 16:11:00,
2013-01-13 11:15:00,48.9,28.0,30.15,SSW,202,1.6,4.9,44,0.00,,---,0.00,VWS V14.00,2013-01-13 16:15:00,
2013-01-13 11:17:00,48.7,27.3,30.15,WSW,248,3.6,5.8,43,0.00,,---,0.00,VWS V14.00,2013-01-13 16:17:00,
2013-01-13 11:19:00,48.9,27.4,30.15,ESE,112,3.4,3.4,43,0.00,,---,0.00,VWS V14.00,2013-01-13 16:19:00,
2013-01-13 11:20:00,49.1,27.6,30.15,SSW,202,2.9,3.4,43,0.00,,---,0.00,VWS V14.00,2013-01-13 16:20:00,
2013-01-13 11:25:00,49.1,28.7,30.12,SSE,158,6.5,6.5,45,0.00,,---,0.00,VWS V14.00,2013-01-13 16:25:00,
2013-01-13 11:28:00,48.7,26.1,30.12,SSE,158,7.6,7.6,41,0.00,,---,0.00,VWS V14.00,2013-01-13 16:28:00,
2013-01-13 11:30:00,48.7,25.5,30.12,South,180,7.2,7.8,40,0.00,,---,0.00,VWS V14.00,2013-01-13 16:30:00,
2013-01-13 11:32:00,48.7,25.5,30.12,SW,225,4.3,5.4,40,0.00,,---,0.00,VWS V14.00,2013-01-13 16:32:00,
2013-01-13 11:35:00,49.1,26.4,30.12,South,180,2.9,4.9,41,0.00,,---,0.00,VWS V14.00,2013-01-13 16:35:00,
2013-01-13 11:37:00,49.1,26.4,30.09,SSW,202,6.5,7.8,41,0.00,,---,0.00,VWS V14.00,2013-01-13 16:37:00,
2013-01-13 11:38:00,48.9,25.7,30.09,SSW,202,5.8,7.4,40,0.00,,---,0.00,VWS V14.00,2013-01-13 16:38:00,
2013-01-13 11:40:00,49.3,26.0,30.09,SSW,202,4.0,4.0,40,0.00,,---,0.00,VWS V14.00,2013-01-13 16:40:00,
2013-01-13 11:41:00,49.5,26.2,30.09,SSW,202,5.4,7.4,40,0.00,,---,0.00,VWS V14.00,2013-01-13 16:41:00,
2013-01-13 11:43:00,49.8,26.5,30.09,SSW,202,5.8,6.0,40,0.00,,---,0.00,VWS V14.00,2013-01-13 16:43:00,
2013-01-13 11:45:00,50.4,27.6,30.09,SW,225,3.1,4.7,41,0.00,,---,0.00,VWS V14.00,2013-01-13 16:45:00,
2013-01-13 11:46:00,50.4,27.6,30.09,SSW,202,3.1,3.6,41,0.00,,---,0.00,VWS V14.00,2013-01-13 16:46:00,
2013-01-13 11:49:00,50.2,26.8,30.09,SSE,158,5.4,5.6,40,0.00,,---,0.00,VWS V14.00,2013-01-13 16:49:00,
2013-01-13 11:52:00,49.8,25.9,30.09,SSE,158,6.0,6.0,39,0.00,,---,0.00,VWS V14.00,2013-01-13 16:52:00,
2013-01-13 11:55:00,49.5,24.9,30.09,SSW,202,8.7,8.7,38,0.00,,---,0.00,VWS V14.00,2013-01-13 16:55:00,
2013-01-13 11:57:00,49.5,24.9,30.09,SSW,202,4.0,5.4,38,0.00,,---,0.00,VWS V14.00,2013-01-13 16:57:00,
2013-01-13 11:59:00,50.0,25.4,30.09,SSW,202,4.7,4.7,38,0.00,,---,0.00,VWS V14.00,2013-01-13 16:59:00,
2013-01-13 12:00:00,50.0,25.4,30.09,SSW,202,3.6,5.4,38,0.00,,---,0.00,VWS V14.00,2013-01-13 17:00:00,
2013-01-13 12:04:00,50.9,26.8,30.09,SSW,202,3.4,3.4,39,0.00,,---,0.00,VWS V14.00,2013-01-13 17:04:00,
2013-01-13 12:05:00,50.7,26.7,30.09,South,180,4.0,4.0,39,0.00,,---,0.00,VWS V14.00,2013-01-13 17:05:00,
2013-01-13 12:10:00,50.9,26.2,30.09,WSW,248,2.7,2.7,38,0.00,,---,0.00,VWS V14.00,2013-01-13 17:10:00,
2013-01-13 12:11:00,50.5,25.9,30.09,SSW,202,3.4,6.0,38,0.00,,---,0.00,VWS V14.00,2013-01-13 17:11:00,
2013-01-13 12:16:00,50.7,26.0,30.09,WSW,248,1.6,2.9,38,0.00,,---,0.00,VWS V14.00,2013-01-13 17:16:00,
2013-01-13 12:17:00,50.9,26.2,30.09,West,270,0.0,2.7,38,0.00,,---,0.00,VWS V14.00,2013-01-13 17:17:00,
2013-01-13 12:22:00,49.6,24.5,30.09,SSW,202,3.8,5.8,37,0.00,,---,0.00,VWS V14.00,2013-01-13 17:22:00,
2013-01-13 12:24:00,49.5,24.3,30.09,SSW,202,3.4,4.0,37,0.00,,---,0.00,VWS V14.00,2013-01-13 17:24:00,
2013-01-13 12:29:00,49.5,24.3,30.09,South,180,3.6,4.0,37,0.00,,---,0.00,VWS V14.00,2013-01-13 17:29:00,
2013-01-13 12:30:00,49.6,24.5,30.09,SSW,202,2.0,3.6,37,0.00,,---,0.00,VWS V14.00,2013-01-13 17:30:00,
2013-01-13 12:31:00,49.8,25.2,30.09,SSW,202,0.0,2.0,38,0.00,,---,0.00,VWS V14.00,2013-01-13 17:31:00,
2013-01-13 12:33:00,49.6,25.1,30.09,SW,225,2.9,3.6,38,0.00,,---,0.00,VWS V14.00,2013-01-13 17:33:00,
2013-01-13 12:37:00,49.3,24.1,30.09,SW,225,3.6,3.6,37,0.00,,---,0.00,VWS V14.00,2013-01-13 17:37:00,
2013-01-13 12:38:00,49.1,24.0,30.09,SSW,202,2.7,3.6,37,0.00,,---,0.00,VWS V14.00,2013-01-13 17:38:00,
2013-01-13 12:42:00,48.9,23.8,30.09,SSE,158,4.3,5.6,37,0.00,,---,0.00,VWS V14.00,2013-01-13 17:42:00,
2013-01-13 12:43:00,48.7,23.6,30.09,South,180,6.7,6.7,37,0.00,,---,0.00,VWS V14.00,2013-01-13 17:43:00,
2013-01-13 12:45:00,48.6,23.5,30.09,SSE,158,6.0,7.2,37,0.00,,---,0.00,VWS V14.00,2013-01-13 17:45:00,
2013-01-13 12:48:00,48.6,23.5,30.09,South,180,2.9,3.1,37,0.00,,---,0.00,VWS V14.00,2013-01-13 17:48:00,
2013-01-13 12:49:00,48.7,23.6,30.09,SSE,158,3.8,3.8,37,0.00,,---,0.00,VWS V14.00,2013-01-13 17:49:00,
2013-01-13 12:50:00,48.6,23.5,30.09,SSE,158,8.1,8.1,37,0.00,,---,0.00,VWS V14.00,2013-01-13 17:50:00,
2013-01-13 12:54:00,48.2,23.2,30.09,SSE,158,3.6,6.5,37,0.00,,---,0.00,VWS V14.00,2013-01-13 17:54:00,
2013-01-13 12:59:00,48.4,23.3,30.09,South,180,5.4,7.2,37,0.00,,---,0.00,VWS V14.00,2013-01-13 17:59:00,
2013-01-13 13:01:00,48.7,23.6,30.09,SSE,158,3.8,4.3,37,0.00,,---,0.00,VWS V14.00,2013-01-13 18:01:00,
2013-01-13 13:04:00,49.3,24.8,30.09,SSE,158,3.1,4.0,38,0.00,,---,0.00,VWS V14.00,2013-01-13 18:04:00,
2013-01-13 13:05:00,49.3,24.8,30.09,SSW,202,4.9,4.9,38,0.00,,---,0.00,VWS V14.00,2013-01-13 18:05:00,
2013-01-13 13:06:00,49.5,24.9,30.06,SSW,202,5.6,6.0,38,0.00,,---,0.00,VWS V14.00,2013-01-13 18:06:00,
2013-01-13 13:10:00,50.0,24.8,30.06,SSE,158,3.4,4.3,37,0.00,,---,0.00,VWS V14.00,2013-01-13 18:10:00,
2013-01-13 13:12:00,50.5,25.9,30.06,South,180,3.6,3.6,38,0.00,,---,0.00,VWS V14.00,2013-01-13 18:12:00,
2013-01-13 13:16:00,50.0,24.1,30.06,South,180,4.5,6.0,36,0.00,,---,0.00,VWS V14.00,2013-01-13 18:16:00,
2013-01-13 13:17:00,50.2,24.9,30.06,SSE,158,5.8,5.8,37,0.00,,---,0.00,VWS V14.00,2013-01-13 18:17:00,
2013-01-13 13:18:00,50.0,24.1,30.06,SE,135,7.8,8.5,36,0.00,,---,0.00,VWS V14.00,2013-01-13 18:18:00,
2013-01-13 13:20:00,49.6,23.1,30.06,SSE,158,10.5,10.5,35,0.00,,---,0.00,VWS V14.00,2013-01-13 18:20:00,
2013-01-13 13:23:00,49.5,22.3,30.06,South,180,6.5,9.6,34,0.00,,---,0.00,VWS V14.00,2013-01-13 18:23:00,
2013-01-13 13:25:00,49.5,23.6,30.06,SSW,202,4.9,8.5,36,0.00,,---,0.00,VWS V14.00,2013-01-13 18:25:00,
2013-01-13 13:28:00,49.6,23.8,30.06,SSE,158,5.4,7.6,36,0.00,,---,0.00,VWS V14.00,2013-01-13 18:28:00,
2013-01-13 13:31:00,49.6,23.8,30.06,SSE,158,7.6,8.1,36,0.00,,---,0.00,VWS V14.00,2013-01-13 18:31:00,
2013-01-13 13:32:00,49.6,23.8,30.06,SSE,158,5.6,9.4,36,0.00,,---,0.00,VWS V14.00,2013-01-13 18:32:00,
2013-01-13 13:36:00,49.8,24.0,30.06,SW,225,4.9,7.4,36,0.00,,---,0.00,VWS V14.00,2013-01-13 18:36:00,
2013-01-13 13:40:00,50.0,24.1,30.06,SSW,202,1.3,6.3,36,0.00,,---,0.00,VWS V14.00,2013-01-13 18:40:00,
2013-01-13 13:42:00,50.2,24.3,30.06,SE,135,4.9,4.9,36,0.00,,---,0.00,VWS V14.00,2013-01-13 18:42:00,
2013-01-13 13:44:00,50.0,24.1,30.06,SSE,158,6.0,6.3,36,0.00,,---,0.00,VWS V14.00,2013-01-13 18:44:00,
2013-01-13 13:45:00,50.0,24.1,30.06,SSW,202,4.3,6.0,36,0.00,,---,0.00,VWS V14.00,2013-01-13 18:45:00,
2013-01-13 13:47:00,49.8,24.0,30.06,SSE,158,7.4,7.4,36,0.00,,---,0.00,VWS V14.00,2013-01-13 18:47:00,
2013-01-13 13:52:00,50.0,24.1,30.06,SSE,158,3.4,3.6,36,0.00,,---,0.00,VWS V14.00,2013-01-13 18:52:00,
2013-01-13 13:55:00,50.2,24.3,30.06,South,180,3.1,6.5,36,0.00,,---,0.00,VWS V14.00,2013-01-13 18:55:00,
2013-01-13 13:56:00,50.2,24.3,30.06,South,180,4.9,5.6,36,0.00,,---,0.00,VWS V14.00,2013-01-13 18:56:00,
2013-01-13 13:58:00,50.0,24.1,30.06,SSW,202,5.8,5.8,36,0.00,,---,0.00,VWS V14.00,2013-01-13 18:58:00,
2013-01-13 14:00:00,49.8,24.0,30.06,South,180,5.6,5.6,36,0.00,,---,0.00,VWS V14.00,2013-01-13 19:00:00,
2013-01-13 14:01:00,49.8,24.0,30.06,South,180,5.4,7.6,36,0.00,,---,0.00,VWS V14.00,2013-01-13 19:01:00,
2013-01-13 14:05:00,49.8,24.0,30.06,South,180,6.3,7.2,36,0.00,,---,0.00,VWS V14.00,2013-01-13 19:05:00,
2013-01-13 14:06:00,49.8,24.6,30.06,SSE,158,4.3,6.3,37,0.00,,---,0.00,VWS V14.00,2013-01-13 19:06:00,
2013-01-13 14:07:00,50.0,24.1,30.06,SSE,158,6.3,6.3,36,0.00,,---,0.00,VWS V14.00,2013-01-13 19:07:00,
2013-01-13 14:09:00,50.2,24.3,30.06,SSE,158,6.3,6.3,36,0.00,,---,0.00,VWS V14.00,2013-01-13 19:09:00,
2013-01-13 14:11:00,50.4,24.4,30.06,South,180,5.4,5.4,36,0.00,,---,0.00,VWS V14.00,2013-01-13 19:11:00,
2013-01-13 14:12:00,50.4,24.4,30.06,SSW,202,2.5,5.4,36,0.00,,---,0.00,VWS V14.00,2013-01-13 19:12:00,
2013-01-13 14:16:00,50.4,24.4,30.06,SW,225,3.4,4.7,36,0.00,,---,0.00,VWS V14.00,2013-01-13 19:16:00,
2013-01-13 14:17:00,50.5,24.6,30.06,SSW,202,3.4,3.4,36,0.00,,---,0.00,VWS V14.00,2013-01-13 19:17:00,
2013-01-13 14:18:00,50.5,24.6,30.06,SSW,202,3.6,3.8,36,0.00,,---,0.00,VWS V14.00,2013-01-13 19:18:00,
2013-01-13 14:22:00,50.4,24.4,30.06,SSW,202,2.5,3.6,36,0.00,,---,0.00,VWS V14.00,2013-01-13 19:22:00,
2013-01-13 14:25:00,50.5,24.6,30.06,SSW,202,2.9,4.9,36,0.00,,---,0.00,VWS V14.00,2013-01-13 19:25:00,
2013-01-13 14:30:00,50.2,24.3,30.06,SSW,202,4.7,7.2,36,0.00,,---,0.00,VWS V14.00,2013-01-13 19:30:00,
2013-01-13 14:33:00,50.2,24.3,30.06,South,180,5.8,5.8,36,0.00,,---,0.00,VWS V14.00,2013-01-13 19:33:00,
2013-01-13 14:34:00,50.2,24.3,30.06,SSE,158,3.4,5.8,36,0.00,,---,0.00,VWS V14.00,2013-01-13 19:34:00,
2013-01-13 14:35:00,50.2,24.3,30.06,SSE,158,6.0,6.0,36,0.00,,---,0.00,VWS V14.00,2013-01-13 19:35:00,
2013-01-13 14:39:00,49.8,24.0,30.06,SSE,158,4.3,7.8,36,0.00,,---,0.00,VWS V14.00,2013-01-13 19:39:00,
2013-01-13 14:40:00,49.8,24.0,30.06,SSE,158,5.4,5.4,36,0.00,,---,0.00,VWS V14.00,2013-01-13 19:40:00,
2013-01-13 14:44:00,50.0,24.1,30.06,SSW,202,4.7,7.8,36,0.00,,---,0.00,VWS V14.00,2013-01-13 19:44:00,
2013-01-13 14:45:00,50.0,24.1,30.06,South,180,2.7,4.7,36,0.00,,---,0.00,VWS V14.00,2013-01-13 19:45:00,
2013-01-13 14:48:00,49.8,24.6,30.06,SSE,158,6.0,6.0,37,0.00,,---,0.00,VWS V14.00,2013-01-13 19:48:00,
2013-01-13 14:51:00,50.0,24.1,30.06,South,180,2.9,4.9,36,0.00,,---,0.00,VWS V14.00,2013-01-13 19:51:00,
2013-01-13 14:53:00,50.0,24.1,30.06,South,180,4.3,5.6,36,0.00,,---,0.00,VWS V14.00,2013-01-13 19:53:00,
2013-01-13 14:55:00,50.0,24.1,30.06,SSE,158,6.0,6.3,36,0.00,,---,0.00,VWS V14.00,2013-01-13 19:55:00,
2013-01-13 14:58:00,49.8,24.6,30.06,SSE,158,8.1,8.1,37,0.00,,---,0.00,VWS V14.00,2013-01-13 19:58:00,
2013-01-13 15:00:00,49.6,24.5,30.06,SSW,202,5.4,10.7,37,0.00,,---,0.00,VWS V14.00,2013-01-13 20:00:00,
2013-01-13 15:03:00,49.6,24.5,30.06,SSW,202,5.8,6.5,37,0.00,,---,0.00,VWS V14.00,2013-01-13 20:03:00,
2013-01-13 15:07:00,49.6,24.5,30.06,SSW,202,8.5,8.5,37,0.00,,---,0.00,VWS V14.00,2013-01-13 20:07:00,
2013-01-13 15:08:00,49.6,24.5,30.06,SSW,202,4.5,8.5,37,0.00,,---,0.00,VWS V14.00,2013-01-13 20:08:00,
2013-01-13 15:10:00,49.6,24.5,30.06,SSE,158,6.3,8.1,37,0.00,,---,0.00,VWS V14.00,2013-01-13 20:10:00,
2013-01-13 15:12:00,49.6,24.5,30.06,SSE,158,2.7,8.5,37,0.00,,---,0.00,VWS V14.00,2013-01-13 20:12:00,
2013-01-13 15:13:00,49.8,24.6,30.06,South,180,3.6,5.8,37,0.00,,---,0.00,VWS V14.00,2013-01-13 20:13:00,
2013-01-13 15:16:00,49.8,24.6,30.06,SSW,202,3.1,4.9,37,0.00,,---,0.00,VWS V14.00,2013-01-13 20:16:00,
2013-01-13 15:18:00,49.6,24.5,30.06,SSW,202,4.9,7.6,37,0.00,,---,0.00,VWS V14.00,2013-01-13 20:18:00,
2013-01-13 15:23:00,49.8,24.6,30.06,South,180,7.4,7.4,37,0.00,,---,0.00,VWS V14.00,2013-01-13 20:23:00,
2013-01-13 15:24:00,49.8,24.6,30.06,SSE,158,8.7,8.7,37,0.00,,---,0.00,VWS V14.00,2013-01-13 20:24:00,
2013-01-13 15:25:00,49.8,24.6,30.06,SSE,158,4.0,8.7,37,0.00,,---,0.00,VWS V14.00,2013-01-13 20:25:00,
2013-01-13 15:28:00,49.8,24.6,30.06,SSW,202,6.3,6.5,37,0.00,,---,0.00,VWS V14.00,2013-01-13 20:28:00,
2013-01-13 15:30:00,49.8,24.6,30.06,SSW,202,4.9,6.5,37,0.00,,---,0.00,VWS V14.00,2013-01-13 20:30:00,
2013-01-13 15:33:00,50.0,24.8,30.06,SSE,158,3.1,4.0,37,0.00,,---,0.00,VWS V14.00,2013-01-13 20:33:00,
2013-01-13 15:36:00,50.2,24.9,30.06,SSW,202,5.8,8.7,37,0.00,,---,0.00,VWS V14.00,2013-01-13 20:36:00,
2013-01-13 15:39:00,50.0,24.8,30.06,SSW,202,7.8,11.9,37,0.00,,---,0.00,VWS V14.00,2013-01-13 20:39:00,
2013-01-13 15:40:00,50.2,24.9,30.06,WSW,248,2.9,7.8,37,0.00,,---,0.00,VWS V14.00,2013-01-13 20:40:00,
2013-01-13 15:43:00,50.2,24.9,30.06,SSW,202,2.7,6.5,37,0.00,,---,0.00,VWS V14.00,2013-01-13 20:43:00,
2013-01-13 15:44:00,50.2,24.9,30.06,SSW,202,5.4,6.3,37,0.00,,---,0.00,VWS V14.00,2013-01-13 20:44:00,
2013-01-13 15:45:00,50.2,24.9,30.06,SSW,202,3.6,5.4,37,0.00,,---,0.00,VWS V14.00,2013-01-13 20:45:00,
2013-01-13 15:49:00,50.2,24.9,30.06,SSW,202,5.6,5.6,37,0.00,,---,0.00,VWS V14.00,2013-01-13 20:49:00,
2013-01-13 15:50:00,50.0,24.8,30.06,SSW,202,6.3,6.5,37,0.00,,---,0.00,VWS V14.00,2013-01-13 20:50:00,
2013-01-13 15:54:00,49.8,25.2,30.06,SSW,202,7.2,10.7,38,0.00,,---,0.00,VWS V14.00,2013-01-13 20:54:00,
2013-01-13 15:55:00,49.8,25.2,30.06,South,180,4.9,7.2,38,0.00,,---,0.00,VWS V14.00,2013-01-13 20:55:00,
2013-01-13 15:56:00,49.8,25.2,30.06,SSW,202,4.3,6.5,38,0.00,,---,0.00,VWS V14.00,2013-01-13 20:56:00,
2013-01-13 15:58:00,49.8,25.2,30.06,SSW,202,3.4,6.0,38,0.00,,---,0.00,VWS V14.00,2013-01-13 20:58:00,
2013-01-13 16:00:00,49.8,25.2,30.06,SSW,202,4.9,6.9,38,0.00,,---,0.00,VWS V14.00,2013-01-13 21:00:00,
2013-01-13 16:03:00,49.8,25.2,30.06,SSW,202,6.3,7.2,38,0.00,,---,0.00,VWS V14.00,2013-01-13 21:03:00,
2013-01-13 16:05:00,49.8,25.2,30.06,WSW,248,3.8,6.5,38,0.00,,---,0.00,VWS V14.00,2013-01-13 21:05:00,
2013-01-13 16:08:00,49.8,25.2,30.06,SSE,158,5.6,6.0,38,0.00,,---,0.00,VWS V14.00,2013-01-13 21:08:00,
2013-01-13 16:09:00,49.8,25.2,30.06,SSE,158,6.3,6.3,38,0.00,,---,0.00,VWS V14.00,2013-01-13 21:09:00,
2013-01-13 16:10:00,49.8,25.2,30.06,SSW,202,4.3,6.5,38,0.00,,---,0.00,VWS V14.00,2013-01-13 21:10:00,
2013-01-13 16:16:00,50.0,25.4,30.06,SSW,202,3.1,5.4,38,0.00,,---,0.00,VWS V14.00,2013-01-13 21:16:00,
2013-01-13 16:17:00,50.0,25.4,30.06,SSW,202,3.1,7.8,38,0.00,,---,0.00,VWS V14.00,2013-01-13 21:17:00,
2013-01-13 16:21:00,50.0,25.4,30.06,SSW,202,6.0,7.8,38,0.00,,---,0.00,VWS V14.00,2013-01-13 21:21:00,
2013-01-13 16:22:00,50.0,25.4,30.06,SSW,202,4.7,6.5,38,0.00,,---,0.00,VWS V14.00,2013-01-13 21:22:00,
2013-01-13 16:24:00,50.2,25.6,30.06,SSW,202,4.3,7.2,38,0.00,,---,0.00,VWS V14.00,2013-01-13 21:24:00,
2013-01-13 16:27:00,50.2,25.6,30.06,SSW,202,2.2,5.4,38,0.00,,---,0.00,VWS V14.00,2013-01-13 21:27:00,
2013-01-13 16:28:00,50.2,25.6,30.06,South,180,5.4,7.4,38,0.00,,---,0.00,VWS V14.00,2013-01-13 21:28:00,
2013-01-13 16:29:00,50.2,25.6,30.06,SSW,202,5.4,5.8,38,0.00,,---,0.00,VWS V14.00,2013-01-13 21:29:00,
2013-01-13 16:33:00,50.2,25.6,30.06,SSW,202,1.6,5.6,38,0.00,,---,0.00,VWS V14.00,2013-01-13 21:33:00,
2013-01-13 16:34:00,50.2,25.6,30.06,South,180,6.5,6.5,38,0.00,,---,0.00,VWS V14.00,2013-01-13 21:34:00,
2013-01-13 16:35:00,50.2,25.6,30.06,SSW,202,5.4,6.5,38,0.00,,---,0.00,VWS V14.00,2013-01-13 21:35:00,
2013-01-13 16:36:00,50.2,25.6,30.06,SSW,202,2.9,5.4,38,0.00,,---,0.00,VWS V14.00,2013-01-13 21:36:00,
2013-01-13 16:38:00,50.2,25.6,30.06,SSW,202,3.8,5.6,38,0.00,,---,0.00,VWS V14.00,2013-01-13 21:38:00,
2013-01-13 16:41:00,50.2,25.6,30.06,South,180,2.5,5.4,38,0.00,,---,0.00,VWS V14.00,2013-01-13 21:41:00,
2013-01-13 16:42:00,50.2,25.6,30.06,SSW,202,3.8,5.8,38,0.00,,---,0.00,VWS V14.00,2013-01-13 21:42:00,
2013-01-13 16:44:00,50.2,25.6,30.06,SSW,202,5.8,5.8,38,0.00,,---,0.00,VWS V14.00,2013-01-13 21:44:00,
2013-01-13 16:47:00,50.2,25.6,30.06,South,180,3.6,3.6,38,0.00,,---,0.00,VWS V14.00,2013-01-13 21:47:00,
2013-01-13 16:48:00,50.2,25.6,30.06,SSW,202,3.1,4.3,38,0.00,,---,0.00,VWS V14.00,2013-01-13 21:48:00,
2013-01-13 16:51:00,50.2,25.6,30.03,SW,225,3.4,6.9,38,0.00,,---,0.00,VWS V14.00,2013-01-13 21:51:00,
2013-01-13 16:54:00,50.2,25.6,30.03,South,180,3.8,6.0,38,0.00,,---,0.00,VWS V14.00,2013-01-13 21:54:00,
2013-01-13 16:55:00,50.2,25.6,30.03,SSW,202,4.3,7.2,38,0.00,,---,0.00,VWS V14.00,2013-01-13 21:55:00,
2013-01-13 16:57:00,50.2,26.2,30.03,WSW,248,5.6,5.6,39,0.00,,---,0.00,VWS V14.00,2013-01-13 21:57:00,
2013-01-13 16:59:00,50.2,26.2,30.03,SSW,202,3.4,6.0,39,0.00,,---,0.00,VWS V14.00,2013-01-13 21:59:00,
2013-01-13 17:02:00,50.2,26.2,30.03,SSW,202,7.6,7.6,39,0.00,,---,0.00,VWS V14.00,2013-01-13 22:02:00,
2013-01-13 17:03:00,50.2,26.2,30.03,SSW,202,3.1,7.6,39,0.00,,---,0.00,VWS V14.00,2013-01-13 22:03:00,
2013-01-13 17:05:00,50.2,26.2,30.03,SSW,202,2.7,4.9,39,0.00,,---,0.00,VWS V14.00,2013-01-13 22:05:00,
2013-01-13 17:07:00,50.2,26.2,30.03,SSW,202,2.7,4.7,39,0.00,,---,0.00,VWS V14.00,2013-01-13 22:07:00,
2013-01-13 17:08:00,50.2,26.2,30.03,SSW,202,2.5,4.3,39,0.00,,---,0.00,VWS V14.00,2013-01-13 22:08:00,
2013-01-13 17:09:00,50.2,26.2,30.03,SSW,202,3.1,4.0,39,0.00,,---,0.00,VWS V14.00,2013-01-13 22:09:00,
2013-01-13 17:12:00,50.4,26.4,30.03,SSW,202,2.9,3.1,39,0.00,,---,0.00,VWS V14.00,2013-01-13 22:12:00,
2013-01-13 17:15:00,50.4,26.4,30.03,SSW,202,1.3,4.3,39,0.00,,---,0.00,VWS V14.00,2013-01-13 22:15:00,
2013-01-13 17:16:00,50.4,26.4,30.03,SSW,202,5.6,5.6,39,0.00,,---,0.00,VWS V14.00,2013-01-13 22:16:00,
2013-01-13 17:18:00,50.4,26.4,30.03,SSW,202,4.7,6.3,39,0.00,,---,0.00,VWS V14.00,2013-01-13 22:18:00,
2013-01-13 17:21:00,50.5,26.5,30.03,SSW,202,3.1,4.9,39,0.00,,---,0.00,VWS V14.00,2013-01-13 22:21:00,
2013-01-13 17:22:00,50.5,26.5,30.03,SSW,202,2.9,6.3,39,0.00,,---,0.00,VWS V14.00,2013-01-13 22:22:00,
2013-01-13 17:23:00,50.5,26.5,30.03,SSW,202,3.1,3.1,39,0.00,,---,0.00,VWS V14.00,2013-01-13 22:23:00,
2013-01-13 17:26:00,50.5,26.5,30.03,SSW,202,2.9,2.9,39,0.00,,---,0.00,VWS V14.00,2013-01-13 22:26:00,
2013-01-13 17:29:00,50.5,26.5,30.03,SSW,202,4.7,4.7,39,0.00,,---,0.00,VWS V14.00,2013-01-13 22:29:00,
2013-01-13 17:32:00,50.5,26.5,30.03,SSW,202,2.9,4.0,39,0.00,,---,0.00,VWS V14.00,2013-01-13 22:32:00,
2013-01-13 17:34:00,50.5,26.5,30.03,SSW,202,2.9,3.4,39,0.00,,---,0.00,VWS V14.00,2013-01-13 22:34:00,
2013-01-13 17:36:00,50.5,26.5,30.03,South,180,2.9,4.0,39,0.00,,---,0.00,VWS V14.00,2013-01-13 22:36:00,
2013-01-13 17:39:00,50.5,26.5,30.03,SSW,202,3.4,4.3,39,0.00,,---,0.00,VWS V14.00,2013-01-13 22:39:00,
2013-01-13 17:41:00,50.5,26.5,30.03,SSW,202,3.4,4.9,39,0.00,,---,0.00,VWS V14.00,2013-01-13 22:41:00,
2013-01-13 17:42:00,50.5,26.5,30.03,South,180,4.9,6.3,39,0.00,,---,0.00,VWS V14.00,2013-01-13 22:42:00,
2013-01-13 17:46:00,50.5,26.5,30.03,SSW,202,2.7,4.3,39,0.00,,---,0.00,VWS V14.00,2013-01-13 22:46:00,
2013-01-13 17:47:00,50.5,26.5,30.03,SSW,202,5.8,5.8,39,0.00,,---,0.00,VWS V14.00,2013-01-13 22:47:00,
2013-01-13 17:48:00,50.5,26.5,30.03,SSW,202,1.3,5.8,39,0.00,,---,0.00,VWS V14.00,2013-01-13 22:48:00,
2013-01-13 17:49:00,50.5,26.5,30.03,South,180,1.3,2.9,39,0.00,,---,0.00,VWS V14.00,2013-01-13 22:49:00,
2013-01-13 17:53:00,50.5,26.5,30.00,SSW,202,4.3,6.5,39,0.00,,---,0.00,VWS V14.00,2013-01-13 22:53:00,
2013-01-13 17:54:00,50.5,26.5,30.00,SSW,202,2.5,4.3,39,0.00,,---,0.00,VWS V14.00,2013-01-13 22:54:00,
2013-01-13 17:55:00,50.5,26.5,30.00,SW,225,4.7,5.6,39,0.00,,---,0.00,VWS V14.00,2013-01-13 22:55:00,
2013-01-13 17:56:00,50.5,26.5,30.00,SSW,202,3.6,5.8,39,0.00,,---,0.00,VWS V14.00,2013-01-13 22:56:00,
2013-01-13 18:00:00,50.5,26.5,30.00,SSW,202,2.7,5.6,39,0.00,,---,0.00,VWS V14.00,2013-01-13 23:00:00,
2013-01-13 18:01:00,50.5,26.5,30.00,SSW,202,2.7,4.0,39,0.00,,---,0.00,VWS V14.00,2013-01-13 23:01:00,
2013-01-13 18:03:00,50.7,27.3,30.00,SSW,202,0.0,4.3,40,0.00,,---,0.00,VWS V14.00,2013-01-13 23:03:00,
2013-01-13 18:06:00,50.5,27.1,30.03,SSW,202,3.6,4.9,40,0.00,,---,0.00,VWS V14.00,2013-01-13 23:06:00,
2013-01-13 18:07:00,50.5,27.1,30.03,SSW,202,2.7,3.6,40,0.00,,---,0.00,VWS V14.00,2013-01-13 23:07:00,
2013-01-13 18:08:00,50.5,27.1,30.03,SSW,202,0.0,2.7,40,0.00,,---,0.00,VWS V14.00,2013-01-13 23:08:00,
2013-01-13 18:11:00,50.5,27.1,30.03,SW,225,2.9,3.8,40,0.00,,---,0.00,VWS V14.00,2013-01-13 23:11:00,
2013-01-13 18:13:00,50.7,26.7,30.03,WSW,248,2.5,2.5,39,0.00,,---,0.00,VWS V14.00,2013-01-13 23:13:00,
2013-01-13 18:14:00,50.7,26.7,30.03,WSW,248,2.9,3.8,39,0.00,,---,0.00,VWS V14.00,2013-01-13 23:14:00,
2013-01-13 18:15:00,50.7,26.7,30.03,SSW,202,2.2,3.4,39,0.00,,---,0.00,VWS V14.00,2013-01-13 23:15:00,
2013-01-13 18:18:00,50.7,26.7,30.03,SW,225,1.3,2.5,39,0.00,,---,0.00,VWS V14.00,2013-01-13 23:18:00,
2013-01-13 18:20:00,50.7,27.3,30.03,SSW,202,2.5,3.8,40,0.00,,---,0.00,VWS V14.00,2013-01-13 23:20:00,
2013-01-13 18:21:00,50.7,26.7,30.03,SSW,202,2.7,2.7,39,0.00,,---,0.00,VWS V14.00,2013-01-13 23:21:00,
2013-01-13 18:23:00,50.7,27.3,30.03,South,180,2.0,4.3,40,0.00,,---,0.00,VWS V14.00,2013-01-13 23:23:00,
2013-01-13 18:26:00,50.7,27.3,30.03,SSW,202,0.0,2.2,40,0.00,,---,0.00,VWS V14.00,2013-01-13 23:26:00,
2013-01-13 18:29:00,50.7,27.3,30.03,SSW,202,2.9,2.9,40,0.00,,---,0.00,VWS V14.00,2013-01-13 23:29:00,
2013-01-13 18:32:00,50.7,27.3,30.03,SSW,202,0.9,2.7,40,0.00,,---,0.00,VWS V14.00,2013-01-13 23:32:00,
2013-01-13 18:33:00,50.7,27.3,30.03,SSW,202,2.7,3.6,40,0.00,,---,0.00,VWS V14.00,2013-01-13 23:33:00,
2013-01-13 18:34:00,50.7,26.7,30.03,SSW,202,1.1,2.9,39,0.00,,---,0.00,VWS V14.00,2013-01-13 23:34:00,
2013-01-13 18:36:00,50.7,26.7,30.03,SSW,202,0.0,3.4,39,0.00,,---,0.00,VWS V14.00,2013-01-13 23:36:00,
2013-01-13 18:38:00,50.7,27.3,30.03,SSW,202,2.5,4.0,40,0.00,,---,0.00,VWS V14.00,2013-01-13 23:38:00,
2013-01-13 18:41:00,50.7,27.3,30.03,SSW,202,2.0,4.3,40,0.00,,---,0.00,VWS V14.00,2013-01-13 23:41:00,
2013-01-13 18:47:00,50.7,27.3,30.03,SSW,202,0.0,0.0,40,0.00,,---,0.00,VWS V14.00,2013-01-13 23:47:00,
2013-01-13 18:48:00,50.7,27.3,30.03,SSW,202,0.0,1.3,40,0.00,,---,0.00,VWS V14.00,2013-01-13 23:48:00,
2013-01-13 18:50:00,50.7,27.3,30.03,SSW,202,2.2,2.5,40,0.00,,---,0.00,VWS V14.00,2013-01-13 23:50:00,
2013-01-13 18:52:00,50.7,27.3,30.00,SSW,202,0.0,0.0,40,0.00,,---,0.00,VWS V14.00,2013-01-13 23:52:00,
2013-01-13 18:53:00,50.7,27.3,30.00,SSW,202,0.0,0.0,40,0.00,,---,0.00,VWS V14.00,2013-01-13 23:53:00,
2013-01-13 18:58:00,50.9,27.5,30.00,SSW,202,0.0,0.0,40,0.00,,---,0.00,VWS V14.00,2013-01-13 23:58:00,
2013-01-13 18:59:00,51.1,27.6,30.00,SSW,202,0.0,0.0,40,0.00,,---,0.00,VWS V14.00,2013-01-13 23:59:00,
2013-01-13 19:04:00,50.9,27.5,30.00,SSW,202,0.0,0.0,40,0.00,,---,0.00,VWS V14.00,2013-01-14 00:04:00,
2013-01-13 19:05:00,50.9,27.5,30.00,SSW,202,0.0,0.0,40,0.00,,---,0.00,VWS V14.00,2013-01-14 00:05:00,
2013-01-13 19:09:00,50.7,26.7,30.03,SSW,202,0.0,0.0,39,0.00,,---,0.00,VWS V14.00,2013-01-14 00:09:00,
2013-01-13 19:10:00,50.7,26.7,30.03,South,180,3.6,4.3,39,0.00,,---,0.00,VWS V14.00,2013-01-14 00:10:00,
2013-01-13 19:15:00,50.7,26.7,30.03,SSW,202,2.9,3.1,39,0.00,,---,0.00,VWS V14.00,2013-01-14 00:15:00,
2013-01-13 19:17:00,50.7,26.7,30.03,SSW,202,2.5,2.9,39,0.00,,---,0.00,VWS V14.00,2013-01-14 00:17:00,
2013-01-13 19:18:00,50.7,26.7,30.03,SSW,202,2.9,3.6,39,0.00,,---,0.00,VWS V14.00,2013-01-14 00:18:00,
2013-01-13 19:20:00,50.5,26.5,30.03,SSW,202,2.5,3.4,39,0.00,,---,0.00,VWS V14.00,2013-01-14 00:20:00,
2013-01-13 19:22:00,50.7,27.3,30.06,SSW,202,3.4,3.4,40,0.00,,---,0.00,VWS V14.00,2013-01-14 00:22:00,
2013-01-13 19:25:00,50.7,27.3,30.06,SSW,202,2.7,4.0,40,0.00,,---,0.00,VWS V14.00,2013-01-14 00:25:00,
2013-01-13 19:26:00,50.9,27.5,30.06,SSW,202,0.0,3.4,40,0.00,,---,0.00,VWS V14.00,2013-01-14 00:26:00,
2013-01-13 19:27:00,50.9,27.5,30.06,SSW,202,0.0,0.0,40,0.00,,---,0.00,VWS V14.00,2013-01-14 00:27:00,
2013-01-13 19:32:00,51.1,28.2,30.06,SSW,202,1.6,2.9,41,0.00,,---,0.00,VWS V14.00,2013-01-14 00:32:00,
2013-01-13 19:33:00,51.3,28.4,30.06,SSW,202,2.5,2.5,41,0.00,,---,0.00,VWS V14.00,2013-01-14 00:33:00,
2013-01-13 19:34:00,51.3,28.4,30.06,SSW,202,2.2,2.5,41,0.00,,---,0.00,VWS V14.00,2013-01-14 00:34:00,
2013-01-13 19:39:00,51.4,28.5,30.03,SSW,202,0.0,0.0,41,0.00,,---,0.00,VWS V14.00,2013-01-14 00:39:00,
2013-01-13 19:40:00,51.4,28.5,30.03,SSW,202,1.6,1.6,41,0.00,,---,0.00,VWS V14.00,2013-01-14 00:40:00,
2013-01-13 19:41:00,51.4,28.5,30.03,SSW,202,0.0,1.6,41,0.00,,---,0.00,VWS V14.00,2013-01-14 00:41:00,
2013-01-13 19:44:00,51.6,28.7,30.03,SSW,202,0.0,0.0,41,0.00,,---,0.00,VWS V14.00,2013-01-14 00:44:00,
2013-01-13 19:47:00,51.6,28.7,30.03,SSW,202,0.9,0.9,41,0.00,,---,0.00,VWS V14.00,2013-01-14 00:47:00,
2013-01-13 19:49:00,51.6,28.7,30.03,SSW,202,1.6,3.8,41,0.00,,---,0.00,VWS V14.00,2013-01-14 00:49:00,
2013-01-13 19:51:00,51.6,28.7,30.03,SSW,202,3.1,5.4,41,0.00,,---,0.00,VWS V14.00,2013-01-14 00:51:00,
2013-01-13 19:52:00,51.6,28.7,30.03,SSW,202,2.0,3.1,41,0.00,,---,0.00,VWS V14.00,2013-01-14 00:52:00,
2013-01-13 19:53:00,51.6,28.7,30.03,SSW,202,0.0,2.0,41,0.00,,---,0.00,VWS V14.00,2013-01-14 00:53:00,
2013-01-13 19:54:00,51.6,28.7,30.03,SSW,202,0.0,1.1,41,0.00,,---,0.00,VWS V14.00,2013-01-14 00:54:00,
2013-01-13 19:58:00,51.6,28.7,30.03,SSW,202,2.5,3.1,41,0.00,,---,0.00,VWS V14.00,2013-01-14 00:58:00,
2013-01-13 20:00:00,51.8,28.3,30.03,SSW,202,2.0,2.9,40,0.00,,---,0.00,VWS V14.00,2013-01-14 01:00:00,
2013-01-13 20:03:00,51.6,28.7,30.03,SSW,202,1.6,2.5,41,0.00,,---,0.00,VWS V14.00,2013-01-14 01:03:00,
2013-01-13 20:05:00,51.8,28.3,30.03,SSW,202,1.3,2.5,40,0.00,,---,0.00,VWS V14.00,2013-01-14 01:05:00,
2013-01-13 20:08:00,51.8,28.3,30.03,SSW,202,0.9,2.0,40,0.00,,---,0.00,VWS V14.00,2013-01-14 01:08:00,
2013-01-13 20:10:00,51.8,28.3,30.03,SSW,202,2.0,2.7,40,0.00,,---,0.00,VWS V14.00,2013-01-14 01:10:00,
2013-01-13 20:12:00,51.8,28.9,30.03,South,180,1.6,3.4,41,0.00,,---,0.00,VWS V14.00,2013-01-14 01:12:00,
2013-01-13 20:15:00,51.8,28.9,30.03,South,180,2.2,2.2,41,0.00,,---,0.00,VWS V14.00,2013-01-14 01:15:00,
2013-01-13 20:16:00,51.8,28.9,30.03,South,180,2.9,2.9,41,0.00,,---,0.00,VWS V14.00,2013-01-14 01:16:00,
2013-01-13 20:18:00,51.8,28.9,30.03,SSW,202,2.2,2.2,41,0.00,,---,0.00,VWS V14.00,2013-01-14 01:18:00,
2013-01-13 20:21:00,52.0,29.0,30.03,SSW,202,1.6,2.7,41,0.00,,---,0.00,VWS V14.00,2013-01-14 01:21:00,
2013-01-13 20:22:00,51.8,28.9,30.03,SSW,202,0.0,1.6,41,0.00,,---,0.00,VWS V14.00,2013-01-14 01:22:00,
2013-01-13 20:23:00,51.8,28.9,30.03,SSW,202,0.0,0.0,41,0.00,,---,0.00,VWS V14.00,2013-01-14 01:23:00,
2013-01-13 20:25:00,52.0,29.0,30.03,SSW,202,0.0,0.0,41,0.00,,---,0.00,VWS V14.00,2013-01-14 01:25:00,
2013-01-13 20:28:00,52.0,29.0,30.03,SSW,202,0.9,2.0,41,0.00,,---,0.00,VWS V14.00,2013-01-14 01:28:00,
2013-01-13 20:29:00,52.0,29.0,30.03,SSW,202,0.9,1.3,41,0.00,,---,0.00,VWS V14.00,2013-01-14 01:29:00,
2013-01-13 20:30:00,52.0,29.0,30.03,SSW,202,0.0,2.7,41,0.00,,---,0.00,VWS V14.00,2013-01-14 01:30:00,
2013-01-13 20:31:00,52.2,29.2,30.03,SSW,202,0.0,0.0,41,0.00,,---,0.00,VWS V14.00,2013-01-14 01:31:00,
2013-01-13 20:33:00,52.2,29.2,30.03,SSW,202,0.0,0.0,41,0.00,,---,0.00,VWS V14.00,2013-01-14 01:33:00,
2013-01-13 20:35:00,52.2,29.2,30.03,SSW,202,0.0,0.0,41,0.00,,---,0.00,VWS V14.00,2013-01-14 01:35:00,
2013-01-13 20:36:00,52.2,29.2,30.03,SSW,202,0.0,0.0,41,0.00,,---,0.00,VWS V14.00,2013-01-14 01:36:00,
2013-01-13 20:37:00,52.3,29.4,30.03,SSW,202,1.1,1.1,41,0.00,,---,0.00,VWS V14.00,2013-01-14 01:37:00,
2013-01-13 20:42:00,52.7,30.3,30.03,SSW,202,0.0,2.0,42,0.00,,---,0.00,VWS V14.00,2013-01-14 01:42:00,
2013-01-13 20:44:00,52.9,31.0,30.03,SW,225,1.6,1.6,43,0.00,,---,0.00,VWS V14.00,2013-01-14 01:44:00,
2013-01-13 20:45:00,52.9,31.0,30.03,SW,225,0.0,1.6,43,0.00,,---,0.00,VWS V14.00,2013-01-14 01:45:00,
2013-01-13 20:46:00,52.9,31.6,30.03,SW,225,0.0,0.0,44,0.00,,---,0.00,VWS V14.00,2013-01-14 01:46:00,
2013-01-13 20:50:00,53.4,32.6,30.03,SSW,202,0.0,1.6,45,0.00,,---,0.00,VWS V14.00,2013-01-14 01:50:00,
2013-01-13 20:51:00,53.2,33.0,30.03,SSW,202,1.3,2.0,46,0.00,,---,0.00,VWS V14.00,2013-01-14 01:51:00,
2013-01-13 20:53:00,53.4,33.2,30.03,SSW,202,0.0,3.4,46,0.00,,---,0.00,VWS V14.00,2013-01-14 01:53:00,
2013-01-13 20:55:00,53.4,33.2,30.03,SSW,202,1.6,1.6,46,0.00,,---,0.00,VWS V14.00,2013-01-14 01:55:00,
2013-01-13 20:57:00,53.4,32.6,30.03,SSW,202,0.0,0.9,45,0.00,,---,0.00,VWS V14.00,2013-01-14 01:57:00,
2013-01-13 20:58:00,53.4,32.1,30.03,SSW,202,0.0,0.0,44,0.00,,---,0.00,VWS V14.00,2013-01-14 01:58:00,
2013-01-13 21:00:00,53.6,32.2,30.03,SSW,202,0.0,0.0,44,0.00,,---,0.00,VWS V14.00,2013-01-14 02:00:00,
2013-01-13 21:03:00,53.6,31.7,30.03,SSW,202,0.0,0.0,43,0.00,,---,0.00,VWS V14.00,2013-01-14 02:03:00,
2013-01-13 21:06:00,53.4,30.9,30.03,South,180,2.5,2.7,42,0.00,,---,0.00,VWS V14.00,2013-01-14 02:06:00,
2013-01-13 21:09:00,53.2,29.6,30.03,South,180,2.5,2.5,40,0.00,,---,0.00,VWS V14.00,2013-01-14 02:09:00,
2013-01-13 21:10:00,53.1,29.4,30.03,South,180,2.5,2.7,40,0.00,,---,0.00,VWS V14.00,2013-01-14 02:10:00,
2013-01-13 21:11:00,53.1,29.4,30.03,South,180,2.2,2.7,40,0.00,,---,0.00,VWS V14.00,2013-01-14 02:11:00,
2013-01-13 21:14:00,53.1,29.4,30.03,South,180,0.0,1.6,40,0.00,,---,0.00,VWS V14.00,2013-01-14 02:14:00,
2013-01-13 21:16:00,52.9,29.2,30.03,South,180,2.0,2.2,40,0.00,,---,0.00,VWS V14.00,2013-01-14 02:16:00,
2013-01-13 21:19:00,52.9,29.2,30.03,South,180,2.9,2.9,40,0.00,,---,0.00,VWS V14.00,2013-01-14 02:19:00,
2013-01-13 21:20:00,52.9,29.2,30.03,South,180,2.7,2.9,40,0.00,,---,0.00,VWS V14.00,2013-01-14 02:20:00,
2013-01-13 21:21:00,52.7,29.1,30.00,South,180,2.7,2.7,40,0.00,,---,0.00,VWS V14.00,2013-01-14 02:21:00,
2013-01-13 21:24:00,52.7,29.1,30.00,SSE,158,1.6,2.7,40,0.00,,---,0.00,VWS V14.00,2013-01-14 02:24:00,
2013-01-13 21:26:00,52.5,28.3,30.00,South,180,3.1,3.8,39,0.00,,---,0.00,VWS V14.00,2013-01-14 02:26:00,
2013-01-13 21:28:00,52.5,28.9,30.00,SW,225,1.1,3.1,40,0.00,,---,0.00,VWS V14.00,2013-01-14 02:28:00,
2013-01-13 21:30:00,52.5,28.9,30.00,SSW,202,1.6,3.6,40,0.00,,---,0.00,VWS V14.00,2013-01-14 02:30:00,
2013-01-13 21:32:00,52.3,28.8,30.00,SSW,202,2.9,2.9,40,0.00,,---,0.00,VWS V14.00,2013-01-14 02:32:00,
2013-01-13 21:34:00,52.3,28.8,30.00,SSW,202,0.0,2.5,40,0.00,,---,0.00,VWS V14.00,2013-01-14 02:34:00,
2013-01-13 21:35:00,52.3,28.8,30.00,SSW,202,2.9,2.9,40,0.00,,---,0.00,VWS V14.00,2013-01-14 02:35:00,
2013-01-13 21:40:00,52.3,29.4,30.00,SSW,202,2.9,2.9,41,0.00,,---,0.00,VWS V14.00,2013-01-14 02:40:00,
2013-01-13 21:42:00,52.3,29.4,30.00,SSW,202,1.6,2.5,41,0.00,,---,0.00,VWS V14.00,2013-01-14 02:42:00,
2013-01-13 21:43:00,52.3,29.4,30.00,SSW,202,3.4,3.4,41,0.00,,---,0.00,VWS V14.00,2013-01-14 02:43:00,
2013-01-13 21:46:00,52.3,30.0,30.00,South,180,2.0,3.6,42,0.00,,---,0.00,VWS V14.00,2013-01-14 02:46:00,
2013-01-13 21:48:00,52.3,30.0,30.00,South,180,2.5,3.1,42,0.00,,---,0.00,VWS V14.00,2013-01-14 02:48:00,
2013-01-13 21:51:00,52.5,30.7,30.03,SSW,202,3.4,3.4,43,0.00,,---,0.00,VWS V14.00,2013-01-14 02:51:00,
2013-01-13 21:52:00,52.3,30.5,30.03,SSW,202,3.4,3.4,43,0.00,,---,0.00,VWS V14.00,2013-01-14 02:52:00,
2013-01-13 21:54:00,52.5,31.2,30.03,SSW,202,2.9,3.1,44,0.00,,---,0.00,VWS V14.00,2013-01-14 02:54:00,
2013-01-13 21:57:00,52.5,31.8,30.03,SSW,202,0.0,3.4,45,0.00,,---,0.00,VWS V14.00,2013-01-14 02:57:00,
2013-01-13 21:59:00,52.5,31.8,30.03,South,180,2.9,3.4,45,0.00,,---,0.00,VWS V14.00,2013-01-14 02:59:00,
2013-01-13 22:00:00,52.5,31.8,30.03,SSW,202,2.2,3.6,45,0.00,,---,0.00,VWS V14.00,2013-01-14 03:00:00,
2013-01-13 22:02:00,52.7,32.5,30.03,SSW,202,2.5,2.7,46,0.00,,---,0.00,VWS V14.00,2013-01-14 03:02:00,
2013-01-13 22:05:00,52.5,32.3,30.03,SSW,202,2.9,4.3,46,0.00,,---,0.00,VWS V14.00,2013-01-14 03:05:00,
2013-01-13 22:06:00,52.5,32.3,30.03,SSW,202,3.4,3.4,46,0.00,,---,0.00,VWS V14.00,2013-01-14 03:06:00,
2013-01-13 22:08:00,52.7,32.5,30.03,SSE,158,1.6,1.6,46,0.00,,---,0.00,VWS V14.00,2013-01-14 03:08:00,
2013-01-13 22:10:00,52.7,32.5,30.03,SW,225,2.5,2.7,46,0.00,,---,0.00,VWS V14.00,2013-01-14 03:10:00,
2013-01-13 22:11:00,52.7,32.5,30.03,SSW,202,0.0,3.4,46,0.00,,---,0.00,VWS V14.00,2013-01-14 03:11:00,
2013-01-13 22:12:00,52.7,32.5,30.03,SSW,202,2.5,2.5,46,0.00,,---,0.00,VWS V14.00,2013-01-14 03:12:00,
2013-01-13 22:16:00,52.7,32.5,30.03,SSW,202,1.6,2.9,46,0.00,,---,0.00,VWS V14.00,2013-01-14 03:16:00,
2013-01-13 22:17:00,52.7,32.5,30.03,SW,225,2.0,2.2,46,0.00,,---,0.00,VWS V14.00,2013-01-14 03:17:00,
2013-01-13 22:18:00,52.7,32.5,30.03,SW,225,2.0,2.7,46,0.00,,---,0.00,VWS V14.00,2013-01-14 03:18:00,
2013-01-13 22:20:00,52.7,32.5,30.03,WSW,248,0.0,0.0,46,0.00,,---,0.00,VWS V14.00,2013-01-14 03:20:00,
2013-01-13 22:23:00,52.7,32.5,30.03,WSW,248,2.5,2.7,46,0.00,,---,0.00,VWS V14.00,2013-01-14 03:23:00,
2013-01-13 22:25:00,52.7,32.5,30.03,SW,225,1.6,2.9,46,0.00,,---,0.00,VWS V14.00,2013-01-14 03:25:00,
2013-01-13 22:29:00,52.5,31.8,30.03,SSW,202,2.5,3.8,45,0.00,,---,0.00,VWS V14.00,2013-01-14 03:29:00,
2013-01-13 22:30:00,52.3,31.6,30.03,SSW,202,2.0,2.7,45,0.00,,---,0.00,VWS V14.00,2013-01-14 03:30:00,
2013-01-13 22:32:00,52.3,31.1,30.03,SSW,202,1.6,2.2,44,0.00,,---,0.00,VWS V14.00,2013-01-14 03:32:00,
2013-01-13 22:36:00,52.3,31.1,30.03,SSW,202,2.5,2.5,44,0.00,,---,0.00,VWS V14.00,2013-01-14 03:36:00,
2013-01-13 22:38:00,52.2,30.9,30.03,SSW,202,2.7,2.7,44,0.00,,---,0.00,VWS V14.00,2013-01-14 03:38:00,
2013-01-13 22:40:00,52.2,30.9,30.03,SSW,202,2.7,2.7,44,0.00,,---,0.00,VWS V14.00,2013-01-14 03:40:00,
2013-01-13 22:42:00,52.2,30.9,30.03,SSW,202,0.0,2.7,44,0.00,,---,0.00,VWS V14.00,2013-01-14 03:42:00,
2013-01-13 22:43:00,52.2,30.9,30.03,SSW,202,0.9,3.8,44,0.00,,---,0.00,VWS V14.00,2013-01-14 03:43:00,
2013-01-13 22:44:00,52.2,30.9,30.03,SSW,202,1.3,1.6,44,0.00,,---,0.00,VWS V14.00,2013-01-14 03:44:00,
2013-01-13 22:45:00,52.2,30.9,30.03,SSW,202,0.0,1.3,44,0.00,,---,0.00,VWS V14.00,2013-01-14 03:45:00,
2013-01-13 22:50:00,52.2,31.5,30.03,SSW,202,0.0,0.0,45,0.00,,---,0.00,VWS V14.00,2013-01-14 03:50:00,
2013-01-13 22:52:00,52.2,31.5,30.03,SSW,202,1.6,1.6,45,0.00,,---,0.00,VWS V14.00,2013-01-14 03:52:00,
2013-01-13 22:54:00,52.2,31.5,30.03,SSW,202,2.7,2.7,45,0.00,,---,0.00,VWS V14.00,2013-01-14 03:54:00,
2013-01-13 22:55:00,52.2,32.0,30.03,SSW,202,2.2,2.7,46,0.00,,---,0.00,VWS V14.00,2013-01-14 03:55:00,
2013-01-13 22:57:00,52.2,32.0,30.03,SSW,202,1.1,1.3,46,0.00,,---,0.00,VWS V14.00,2013-01-14 03:57:00,
2013-01-13 22:58:00,52.2,32.0,30.03,SSW,202,0.0,1.1,46,0.00,,---,0.00,VWS V14.00,2013-01-14 03:58:00,
2013-01-13 22:59:00,52.2,32.0,30.03,SSW,202,0.0,0.0,46,0.00,,---,0.00,VWS V14.00,2013-01-14 03:59:00,
2013-01-13 23:03:00,52.2,32.0,30.03,SSW,202,0.0,0.0,46,0.00,,---,0.00,VWS V14.00,2013-01-14 04:03:00,
2013-01-13 23:05:00,52.2,32.0,30.03,SSW,202,0.0,0.0,46,0.00,,---,0.00,VWS V14.00,2013-01-14 04:05:00,
2013-01-13 23:06:00,52.2,32.0,30.03,SSW,202,0.0,0.0,46,0.00,,---,0.00,VWS V14.00,2013-01-14 04:06:00,
2013-01-13 23:11:00,52.2,32.0,30.03,SSW,202,2.2,2.2,46,0.00,,---,0.00,VWS V14.00,2013-01-14 04:11:00,
2013-01-13 23:12:00,52.2,32.0,30.03,SSW,202,1.1,2.5,46,0.00,,---,0.00,VWS V14.00,2013-01-14 04:12:00,
2013-01-13 23:14:00,52.2,32.0,30.03,SSW,202,0.0,2.0,46,0.00,,---,0.00,VWS V14.00,2013-01-14 04:14:00,
2013-01-13 23:17:00,52.2,32.0,30.03,SSW,202,0.0,2.0,46,0.00,,---,0.00,VWS V14.00,2013-01-14 04:17:00,
2013-01-13 23:18:00,52.2,32.0,30.03,SSW,202,0.0,0.0,46,0.00,,---,0.00,VWS V14.00,2013-01-14 04:18:00,
2013-01-13 23:19:00,52.2,32.0,30.03,SSW,202,0.0,0.0,46,0.00,,---,0.00,VWS V14.00,2013-01-14 04:19:00,
2013-01-13 23:23:00,52.2,32.0,30.00,SSW,202,0.9,1.1,46,0.00,,---,0.00,VWS V14.00,2013-01-14 04:23:00,
2013-01-13 23:24:00,52.2,32.0,30.00,SSW,202,0.0,0.9,46,0.00,,---,0.00,VWS V14.00,2013-01-14 04:24:00,
2013-01-13 23:25:00,52.2,32.0,30.00,SSW,202,2.0,2.0,46,0.00,,---,0.00,VWS V14.00,2013-01-14 04:25:00,
2013-01-13 23:27:00,52.2,32.0,30.00,SSW,202,2.7,2.7,46,0.00,,---,0.00,VWS V14.00,2013-01-14 04:27:00,
2013-01-13 23:31:00,52.2,32.0,30.00,SSW,202,0.0,2.5,46,0.00,,---,0.00,VWS V14.00,2013-01-14 04:31:00,
2013-01-13 23:33:00,52.2,32.0,30.00,SSW,202,0.0,0.9,46,0.00,,---,0.00,VWS V14.00,2013-01-14 04:33:00,
2013-01-13 23:37:00,52.2,32.0,30.00,SSW,202,1.1,2.9,46,0.00,,---,0.00,VWS V14.00,2013-01-14 04:37:00,
2013-01-13 23:38:00,52.2,32.0,30.00,SSW,202,1.1,1.6,46,0.00,,---,0.00,VWS V14.00,2013-01-14 04:38:00,
2013-01-13 23:39:00,52.2,32.0,30.00,SSW,202,0.0,1.1,46,0.00,,---,0.00,VWS V14.00,2013-01-14 04:39:00,
2013-01-13 23:43:00,52.2,32.0,30.00,SSW,202,0.0,0.0,46,0.00,,---,0.00,VWS V14.00,2013-01-14 04:43:00,
2013-01-13 23:44:00,52.2,32.0,30.00,SSW,202,0.0,0.0,46,0.00,,---,0.00,VWS V14.00,2013-01-14 04:44:00,
2013-01-13 23:46:00,52.2,32.0,30.00,SSW,202,0.0,0.0,46,0.00,,---,0.00,VWS V14.00,2013-01-14 04:46:00,
2013-01-13 23:47:00,52.2,32.0,30.00,SSW,202,0.0,0.0,46,0.00,,---,0.00,VWS V14.00,2013-01-14 04:47:00,
2013-01-13 23:50:00,52.2,32.0,30.00,SSW,202,0.0,0.0,46,0.00,,---,0.00,VWS V14.00,2013-01-14 04:50:00,
2013-01-13 23:51:00,52.2,32.0,30.03,SSW,202,0.0,0.0,46,0.00,,---,0.00,VWS V14.00,2013-01-14 04:51:00,
2013-01-13 23:54:00,52.2,32.0,30.03,SSW,202,0.0,0.0,46,0.00,,---,0.00,VWS V14.00,2013-01-14 04:54:00,
2013-01-13 23:55:00,52.2,32.0,30.03,SSW,202,0.0,0.0,46,0.00,,---,0.00,VWS V14.00,2013-01-14 04:55:00,
2013-01-13 23:57:00,52.2,32.0,30.03,SSW,202,0.0,0.0,46,0.00,,---,0.00,VWS V14.00,2013-01-14 04:57:00,